Weather Roundup
Issued by NWS Chicago, IL

Home | Current Version | Previous Version | Text Only | Print | Product List | Glossary On
Versions: 1 2 3 4 5 6 7 8 9 10 11 12 13 14 15 16 17 18 19 20 21 22 23 24 25 26 27 28 29 30 31 32 33 34 35 36 37 38 39 40 41 42 43 44 45 46 47 48 49 50
000
NZUS59 KLOT 220308
HRRLOT

CHICAGO AREA WEATHER ROUNDUP
NATIONAL WEATHER SERVICE CHICAGO/ROMEOVILLE IL
1000 PM CDT SAT APR 21 2018

NOTE: "FAIR" INDICATES FEW OR NO CLOUDS BELOW 12,000 FEET WITH NO
SIGNIFICANT WEATHER AND/OR OBSTRUCTIONS TO VISIBILITY.

* THESE STATIONS ARE NOT UNDER NWS QUALITY CONTROL. THEY ALSO MAY NOT
  REPORT WEATHER SUCH AS PRECIPITATION OR FOG.

ILZ005-006-012>014-019>023-220400-
NORTHEAST ILLINOIS

CITY           SKY/WX    TMP DP  RH WIND       PRES   REMARKS
OHARE          CLOUDY    47  16  29 E5        30.40R
MIDWAY         CLOUDY    47  19  33 E5        30.40R
AURORA           N/A     45  27  49 N6        30.39R
LANSING*         N/A     43  27  53 CALM      30.40R
JOLIET*          N/A     47  24  40 NE6       30.38S
WAUKEGAN         N/A     39  25  57 CALM      30.39R
DUPAGE AIRPORT   N/A     46  21  37 NE3       30.39R
WHEELING         N/A     45  18  34 CALM      30.42R
KANKAKEE*        N/A     46  31  56 NE10      30.37R
MORRIS*          N/A     45  30  55 NE5       30.37R
LEWIS AIRPORT*   N/A     44  22  41 NE8       30.38S
NORTHERLY ISL    N/A     43  21  42 NE3         N/A
$$

WIZ051-052-058>065-066-070>072-220400-
SOUTHEAST WISCONSIN

CITY           SKY/WX    TMP DP  RH WIND       PRES   REMARKS
MILWAUKEE      MOCLDY    45  20  36 CALM      30.40R
KENOSHA*         N/A     42  22  44 CALM      30.39S
RACINE*          N/A     41  23  48 CALM      30.41R
BURLINGTON       N/A     43  21  42 CALM      30.40R
WAUKESHA       CLOUDY    41  23  48 CALM      30.40S
WEST BEND        N/A     37  23  56 CALM      30.39S
$$

INZ001>003-010>013-019-020-220400-
NORTHWEST INDIANA

CITY           SKY/WX    TMP DP  RH WIND       PRES   REMARKS
GARY*          CLOUDY    43  25  49 CALM      30.40R
MICHIGAN CITY* NOT AVBL
RENSSELAER*    NOT AVBL
VALPARAISO       N/A     46  27  47 N5        30.38R
$$

LMZ740>746-220400-
SOUTHERN LAKE MICHIGAN

STATION/POSITION TIME  SKY/WX   TEMP WIND        PRES    VSBY
                                AIR  DIR/SP/G
                 (UTC)          (F)  (DEG/KT/KT) (MB)    (MI)
HARRISON CRIB    0240            42  340/  8/  8   N/A
BURNHAM HARBOR   0300            43  350/  3/  6   N/A
CALUMET HARBOR   0242            41  350/  3/  4 1028.6R
BURNS HARBOR     0240            42   60/  7/  9 1029.5R
MICHIGAN CITY    0240            41   30/  8/  8   N/A
$$

ABBREVIATIONS USED IN REMARKS
   TC - TEMPERATURE IN CELSIUS
  WCI - WIND CHILL INDEX
   HX - HEAT INDEX
  VSB - VISIBILITY
$$




USA.gov is the U.S. government's official web portal to all federal, state and local government web resources and services.